• In Netherlands
  • List of Countries
  • For 7 days
  • Water Temperature
  • Satellite Maps
  • Weather Map
  • Weather Widgets
  • user-avatar
    Login

    Hourly Weather Shumen

    Today, 16 January, Tuesday

    Time Temperature Precipitation Wind Pressure Humidity
    00:00 -4°C° 0.6 mm 2 mps 735 mmHg 92%
    01:00 -2°C° 0.6 mm 1 mps 735 mmHg 94%
    02:00 -2°C° 0 mm 1 mps 734 mmHg 96%
    03:00 -2°C° 0.3 mm 1 mps 734 mmHg 97%
    04:00 -2°C° 0.3 mm 1 mps 733 mmHg 97%
    05:00 -1°C° 0.3 mm 1 mps 733 mmHg 97%
    06:00 -2°C° 0.2 mm 1 mps 732 mmHg 97%
    07:00 -2°C° 0.2 mm 1 mps 732 mmHg 97%
    08:00 -5°C° 0 mm 2 mps 731 mmHg 96%
    09:00 -5°C° 0 mm 2 mps 731 mmHg 93%
    10:00 -4°C° 0 mm 2 mps 731 mmHg 90%
    11:00 -4°C° 0 mm 2 mps 731 mmHg 88%
    12:00 -3°C° 0 mm 2 mps 731 mmHg 86%
    13:00 -2°C° 0 mm 2 mps 730 mmHg 85%
    14:00 +1°C° 0 mm 1 mps 730 mmHg 84%
    15:00 0°C° 0 mm 1 mps 729 mmHg 86%
    16:00 0°C° 0 mm 1 mps 728 mmHg 89%
    17:00 -1°C° 0 mm 1 mps 728 mmHg 92%
    18:00 0°C° 0 mm 1 mps 727 mmHg 92%
    19:00 -2°C° 0 mm 2 mps 727 mmHg 92%
    20:00 -2°C° 0 mm 2 mps 726 mmHg 93%
    21:00 -2°C° 0 mm 2 mps 726 mmHg 92%
    22:00 -1°C° 0 mm 2 mps 725 mmHg 92%
    23:00 -1°C° 0 mm 2 mps 725 mmHg 92%

    Tomorrow, 17 January, Wednesday

    Time Temperature Precipitation Wind Pressure Humidity
    00:00 -1°C° 0 mm 2 mps 725 mmHg 92%
    01:00 -1°C° 0 mm 2 mps 724 mmHg 92%
    02:00 -1°C° 0 mm 2 mps 724 mmHg 91%
    03:00 -1°C° 0 mm 2 mps 723 mmHg 90%
    04:00 -1°C° 0 mm 2 mps 723 mmHg 89%
    05:00 +1°C° 0 mm 2 mps 722 mmHg 88%
    06:00 +1°C° 0 mm 2 mps 722 mmHg 87%
    07:00 +1°C° 0 mm 2 mps 722 mmHg 87%
    08:00 +1°C° 0 mm 2 mps 722 mmHg 86%
    09:00 +2°C° 0 mm 2 mps 721 mmHg 86%
    10:00 +2°C° 0 mm 3 mps 721 mmHg 86%
    11:00 +3°C° 0 mm 3 mps 721 mmHg 86%
    12:00 +4°C° 0 mm 3 mps 720 mmHg 84%
    13:00 +5°C° 0 mm 4 mps 719 mmHg 82%
    14:00 +6°C° 0 mm 4 mps 717 mmHg 79%
    15:00 +6°C° 0 mm 5 mps 716 mmHg 79%
    16:00 +5°C° 0 mm 5 mps 715 mmHg 78%
    17:00 +4°C° 0 mm 6 mps 714 mmHg 78%
    18:00 +5°C° 0.2 mm 7 mps 713 mmHg 78%
    19:00 +5°C° 0.2 mm 8 mps 713 mmHg 79%
    20:00 +6°C° 0.2 mm 9 mps 712 mmHg 79%
    21:00 +5°C° 0.5 mm 8 mps 712 mmHg 81%
    22:00 +4°C° 0.5 mm 8 mps 712 mmHg 84%
    23:00 +3°C° 0.5 mm 7 mps 712 mmHg 86%

    Day after tomorrow, 18 January, Thursday

    Time Temperature Precipitation Wind Pressure Humidity
    00:00 +1°C° 0.1 mm 8 mps 712 mmHg 84%
    01:00 0°C° 0.1 mm 9 mps 712 mmHg 82%
    02:00 -2°C° 0.1 mm 11 mps 713 mmHg 81%
    03:00 -2°C° 0.4 mm 11 mps 713 mmHg 80%
    04:00 -3°C° 0.4 mm 11 mps 714 mmHg 79%
    05:00 -3°C° 0.4 mm 11 mps 715 mmHg 78%
    06:00 -4°C° 0.5 mm 11 mps 716 mmHg 76%
    07:00 -4°C° 0.5 mm 11 mps 717 mmHg 75%
    08:00 -4°C° 0.5 mm 10 mps 718 mmHg 74%
    09:00 -4°C° 0 mm 10 mps 719 mmHg 71%
    10:00 -4°C° 0 mm 10 mps 721 mmHg 67%
    11:00 -3°C° 0 mm 11 mps 722 mmHg 64%
    12:00 -3°C° 0 mm 10 mps 723 mmHg 63%
    13:00 -2°C° 0 mm 10 mps 723 mmHg 62%
    14:00 -1°C° 0 mm 9 mps 724 mmHg 61%
    15:00 -1°C° 0 mm 8 mps 725 mmHg 63%
    16:00 -2°C° 0 mm 7 mps 725 mmHg 65%
    17:00 -2°C° 0 mm 6 mps 726 mmHg 67%
    18:00 -3°C° 0 mm 6 mps 727 mmHg 69%
    19:00 -3°C° 0 mm 6 mps 727 mmHg 71%
    20:00 -3°C° 0 mm 6 mps 728 mmHg 73%
    21:00 -2°C° 0 mm 5 mps 728 mmHg 71%
    22:00 -2°C° 0 mm 4 mps 728 mmHg 69%
    23:00 -3°C° 0 mm 4 mps 727 mmHg 68%

    19 January, Friday

    Time Temperature Precipitation Wind Pressure Humidity
    00:00 -3°C° 0 mm 4 mps 727 mmHg 66%
    01:00 -2°C° 0 mm 3 mps 727 mmHg 64%
    02:00 -2°C° 0 mm 3 mps 726 mmHg 63%
    03:00 -2°C° 0 mm 4 mps 726 mmHg 62%
    04:00 -2°C° 0 mm 4 mps 726 mmHg 61%
    05:00 -2°C° 0 mm 4 mps 725 mmHg 59%
    06:00 -2°C° 0 mm 4 mps 725 mmHg 60%
    07:00 -2°C° 0 mm 4 mps 725 mmHg 60%
    08:00 -2°C° 0 mm 4 mps 726 mmHg 60%
    09:00 0°C° 0 mm 4 mps 726 mmHg 58%
    10:00 +3°C° 0 mm 4 mps 726 mmHg 55%
    11:00 +4°C° 0 mm 4 mps 726 mmHg 53%
    12:00 +5°C° 0 mm 4 mps 726 mmHg 53%
    13:00 +7°C° 0 mm 3 mps 726 mmHg 52%
    14:00 +8°C° 0 mm 3 mps 726 mmHg 52%
    15:00 +7°C° 0 mm 3 mps 726 mmHg 55%
    16:00 +5°C° 0 mm 3 mps 726 mmHg 58%
    17:00 +4°C° 0 mm 2 mps 726 mmHg 62%
    18:00 +4°C° 0 mm 2 mps 726 mmHg 61%
    19:00 +4°C° 0 mm 2 mps 726 mmHg 60%
    20:00 +3°C° 0 mm 2 mps 726 mmHg 59%
    21:00 +3°C° 0 mm 2 mps 726 mmHg 60%
    22:00 +3°C° 0 mm 2 mps 726 mmHg 62%
    23:00 +2°C° 0 mm 2 mps 726 mmHg 63%

    20 January, Saturday

    Time Temperature Precipitation Wind Pressure Humidity
    00:00 +2°C° 0 mm 2 mps 726 mmHg 65%
    01:00 +2°C° 0 mm 2 mps 726 mmHg 67%
    02:00 +2°C° 0 mm 2 mps 725 mmHg 70%
    03:00 +2°C° 0 mm 2 mps 725 mmHg 71%
    04:00 +2°C° 0 mm 2 mps 725 mmHg 72%
    05:00 +2°C° 0 mm 2 mps 725 mmHg 73%
    06:00 +1°C° 0 mm 3 mps 724 mmHg 75%
    07:00 +1°C° 0 mm 3 mps 724 mmHg 77%
    08:00 +2°C° 0 mm 3 mps 724 mmHg 79%
    09:00 +4°C° 0 mm 4 mps 724 mmHg 78%
    10:00 +5°C° 0 mm 5 mps 724 mmHg 76%
    11:00 +7°C° 0 mm 6 mps 724 mmHg 75%
    12:00 +8°C° 0 mm 6 mps 724 mmHg 72%
    13:00 +9°C° 0 mm 6 mps 723 mmHg 68%
    14:00 +10°C° 0 mm 6 mps 723 mmHg 65%
    15:00 +9°C° 0 mm 6 mps 722 mmHg 68%
    16:00 +9°C° 0 mm 6 mps 722 mmHg 71%
    17:00 +8°C° 0 mm 6 mps 722 mmHg 74%
    18:00 +8°C° 0 mm 6 mps 722 mmHg 76%
    19:00 +8°C° 0 mm 7 mps 722 mmHg 78%
    20:00 +8°C° 0 mm 7 mps 722 mmHg 80%
    21:00 +8°C° 0 mm 7 mps 722 mmHg 80%
    22:00 +7°C° 0 mm 8 mps 722 mmHg 81%
    23:00 +7°C° 0 mm 8 mps 722 mmHg 81%

    21 January, Sunday

    Time Temperature Precipitation Wind Pressure Humidity
    00:00 +7°C° 0 mm 8 mps 721 mmHg 81%
    01:00 +7°C° 0 mm 8 mps 721 mmHg 80%
    02:00 +7°C° 0 mm 8 mps 721 mmHg 80%
    03:00 +7°C° 0 mm 8 mps 720 mmHg 80%
    04:00 +8°C° 0 mm 7 mps 720 mmHg 81%
    05:00 +8°C° 0 mm 7 mps 720 mmHg 81%
    06:00 +8°C° 0 mm 7 mps 720 mmHg 82%
    07:00 +8°C° 0 mm 7 mps 719 mmHg 82%
    08:00 +8°C° 0 mm 6 mps 719 mmHg 83%
    09:00 +8°C° 0.3 mm 7 mps 719 mmHg 82%
    10:00 +8°C° 0.3 mm 7 mps 719 mmHg 82%
    11:00 +8°C° 0.3 mm 7 mps 718 mmHg 81%
    12:00 +8°C° 0.9 mm 7 mps 718 mmHg 80%
    13:00 +7°C° 0.9 mm 8 mps 717 mmHg 79%
    14:00 +7°C° 0.9 mm 8 mps 716 mmHg 78%
    15:00 +8°C° 0.6 mm 7 mps 716 mmHg 79%
    16:00 +6°C° 0.6 mm 7 mps 715 mmHg 80%
    17:00 +7°C° 0.6 mm 6 mps 715 mmHg 80%
    18:00 +7°C° 0.3 mm 6 mps 714 mmHg 82%
    19:00 +7°C° 0.3 mm 6 mps 714 mmHg 83%
    20:00 +5°C° 0.3 mm 6 mps 714 mmHg 85%
    21:00 +6°C° 0.3 mm 5 mps 713 mmHg 87%
    22:00 +5°C° 0.3 mm 4 mps 713 mmHg 90%
    23:00 +5°C° 0.3 mm 4 mps 713 mmHg 92%
    Show more